Data supplied by UK-AIR on 15/3/2023
All Data GMT hour ending 
Status: R =Ratified P=Provisional,P*=As supplied
,,Newcastle Cradlewell Roadside,,,,,,,,,,,,,,,,,,,,,,,
Date,time,"PM<sub>10</sub> particulate matter (Hourly measured)",status,unit,"Nitric oxide",status,unit,"Nitrogen dioxide",status,unit,"Nitrogen oxides as nitrogen dioxide",status,unit
 
01-01-2022,01:00,17.392,R,ugm-3 (Ref.eq),13.21697,R,ugm-3,28.63648,R,ugm-3,48.90221,R,ugm-3
01-01-2022,02:00,17.392,R,ugm-3 (Ref.eq),18.09131,R,ugm-3,32.94890,R,ugm-3,60.68853,R,ugm-3
01-01-2022,03:00,18.358,R,ugm-3 (Ref.eq),13.77939,R,ugm-3,23.61962,R,ugm-3,44.74772,R,ugm-3
01-01-2022,04:00,2.899,R,ugm-3 (Ref.eq),16.97818,R,ugm-3,27.28008,R,ugm-3,53.31293,R,ugm-3
01-01-2022,05:00,7.730,R,ugm-3 (Ref.eq),5.72970,R,ugm-3,10.70593,R,ugm-3,19.49134,R,ugm-3
01-01-2022,06:00,16.425,R,ugm-3 (Ref.eq),6.04606,R,ugm-3,13.62496,R,ugm-3,22.89546,R,ugm-3
01-01-2022,07:00,15.459,R,ugm-3 (Ref.eq),2.60121,R,ugm-3,8.69463,R,ugm-3,12.68310,R,ugm-3
01-01-2022,08:00,13.527,R,ugm-3 (Ref.eq),2.49576,R,ugm-3,9.35047,R,ugm-3,13.17724,R,ugm-3
01-01-2022,09:00,15.459,R,ugm-3 (Ref.eq),6.50303,R,ugm-3,12.10071,R,ugm-3,22.07188,R,ugm-3
01-01-2022,10:00,13.527,R,ugm-3 (Ref.eq),24.00848,R,ugm-3,34.83877,R,ugm-3,71.65126,R,ugm-3
01-01-2022,11:00,18.358,R,ugm-3 (Ref.eq),9.52606,R,ugm-3,18.44650,R,ugm-3,33.05292,R,ugm-3
01-01-2022,12:00,24.155,R,ugm-3 (Ref.eq),7.55757,R,ugm-3,14.32713,R,ugm-3,25.91525,R,ugm-3
01-01-2022,13:00,30.918,R,ugm-3 (Ref.eq),6.81939,R,ugm-3,14.30598,R,ugm-3,24.76224,R,ugm-3
01-01-2022,14:00,23.189,R,ugm-3 (Ref.eq),7.52242,R,ugm-3,13.72216,R,ugm-3,25.25638,R,ugm-3
01-01-2022,15:00,28.020,R,ugm-3 (Ref.eq),8.26061,R,ugm-3,16.10423,R,ugm-3,28.77031,R,ugm-3
01-01-2022,16:00,20.290,R,ugm-3 (Ref.eq),10.82667,R,ugm-3,19.63676,R,ugm-3,36.23742,R,ugm-3
01-01-2022,17:00,25.121,R,ugm-3 (Ref.eq),8.33091,R,ugm-3,16.49058,R,ugm-3,29.26446,R,ugm-3
01-01-2022,18:00,22.223,R,ugm-3 (Ref.eq),7.31151,R,ugm-3,15.91233,R,ugm-3,27.12316,R,ugm-3
01-01-2022,19:00,23.189,R,ugm-3 (Ref.eq),7.34667,R,ugm-3,18.10954,R,ugm-3,29.37427,R,ugm-3
01-01-2022,20:00,17.392,R,ugm-3 (Ref.eq),7.52242,R,ugm-3,19.04797,R,ugm-3,30.58219,R,ugm-3
01-01-2022,21:00,59.904,R,ugm-3 (Ref.eq),4.53454,R,ugm-3,11.55018,R,ugm-3,18.50305,R,ugm-3
01-01-2022,22:00,12.561,R,ugm-3 (Ref.eq),3.97212,R,ugm-3,8.62409,R,ugm-3,14.71459,R,ugm-3
01-01-2022,23:00,10.628,R,ugm-3 (Ref.eq),3.30424,R,ugm-3,7.45195,R,ugm-3,12.51838,R,ugm-3
01-01-2022,24:00,13.527,R,ugm-3 (Ref.eq),5.44848,R,ugm-3,9.38015,R,ugm-3,17.73437,R,ugm-3
02-01-2022,01:00,15.459,R,ugm-3 (Ref.eq),4.31419,R,ugm-3,10.28673,R,ugm-3,16.90172,R,ugm-3
02-01-2022,02:00,14.493,R,ugm-3 (Ref.eq),2.25088,R,ugm-3,7.23117,R,ugm-3,10.68247,R,ugm-3
02-01-2022,03:00,12.561,R,ugm-3 (Ref.eq),2.18054,R,ugm-3,7.46707,R,ugm-3,10.81052,R,ugm-3
02-01-2022,04:00,10.628,R,ugm-3 (Ref.eq),4.95897,R,ugm-3,15.82829,R,ugm-3,23.43193,R,ugm-3
02-01-2022,05:00,5.797,R,ugm-3 (Ref.eq),2.74326,R,ugm-3,7.64688,R,ugm-3,11.85316,R,ugm-3
02-01-2022,06:00,3.865,R,ugm-3 (Ref.eq),1.58265,R,ugm-3,4.87177,R,ugm-3,7.29847,R,ugm-3
02-01-2022,07:00,3.865,R,ugm-3 (Ref.eq),3.79836,R,ugm-3,10.25452,R,ugm-3,16.07858,R,ugm-3
02-01-2022,08:00,5.797,R,ugm-3 (Ref.eq),5.66237,R,ugm-3,21.55434,R,ugm-3,30.23652,R,ugm-3
02-01-2022,09:00,16.425,R,ugm-3 (Ref.eq),14.38453,R,ugm-3,34.24652,R,ugm-3,56.30249,R,ugm-3
02-01-2022,10:00,15.459,R,ugm-3 (Ref.eq),18.99179,R,ugm-3,40.62669,R,ugm-3,69.74704,R,ugm-3
02-01-2022,11:00,13.527,R,ugm-3 (Ref.eq),12.20399,R,ugm-3,23.81616,R,ugm-3,42.52868,R,ugm-3
02-01-2022,12:00,10.628,R,ugm-3 (Ref.eq),15.89684,R,ugm-3,27.42787,R,ugm-3,51.80268,R,ugm-3
02-01-2022,13:00,15.459,R,ugm-3 (Ref.eq),26.16647,R,ugm-3,46.69202,R,ugm-3,86.81338,R,ugm-3
02-01-2022,14:00,13.527,R,ugm-3 (Ref.eq),20.43376,R,ugm-3,32.98301,R,ugm-3,64.31434,R,ugm-3
02-01-2022,15:00,10.628,R,ugm-3 (Ref.eq),24.97069,R,ugm-3,43.14770,R,ugm-3,81.43556,R,ugm-3
02-01-2022,16:00,10.628,R,ugm-3 (Ref.eq),32.77843,R,ugm-3,57.24197,R,ugm-3,107.50153,R,ugm-3
02-01-2022,17:00,12.561,R,ugm-3 (Ref.eq),21.06682,R,ugm-3,43.37160,R,ugm-3,75.67361,R,ugm-3
02-01-2022,18:00,12.561,R,ugm-3 (Ref.eq),14.34936,R,ugm-3,29.52626,R,ugm-3,51.52830,R,ugm-3
02-01-2022,19:00,6.763,R,ugm-3 (Ref.eq),13.15358,R,ugm-3,23.18328,R,ugm-3,43.35182,R,ugm-3
02-01-2022,20:00,1.932,R,ugm-3 (Ref.eq),8.68699,R,ugm-3,19.16656,R,ugm-3,32.48642,R,ugm-3
02-01-2022,21:00,4.831,R,ugm-3 (Ref.eq),6.57679,R,ugm-3,18.28648,R,ugm-3,28.37075,R,ugm-3
02-01-2022,22:00,8.696,R,ugm-3 (Ref.eq),5.94373,R,ugm-3,14.75735,R,ugm-3,23.87094,R,ugm-3
02-01-2022,23:00,11.594,R,ugm-3 (Ref.eq),5.66237,R,ugm-3,12.93886,R,ugm-3,21.62103,R,ugm-3
02-01-2022,24:00,12.561,R,ugm-3 (Ref.eq),4.15006,R,ugm-3,9.27625,R,ugm-3,15.63958,R,ugm-3
03-01-2022,01:00,12.561,R,ugm-3 (Ref.eq),2.81508,R,ugm-3,7.82291,R,ugm-3,12.13931,R,ugm-3
03-01-2022,02:00,13.527,R,ugm-3 (Ref.eq),1.78288,R,ugm-3,5.01789,R,ugm-3,7.75160,R,ugm-3
03-01-2022,03:00,14.493,R,ugm-3 (Ref.eq),1.61867,R,ugm-3,3.88024,R,ugm-3,6.36217,R,ugm-3
03-01-2022,04:00,11.594,R,ugm-3 (Ref.eq),1.61867,R,ugm-3,4.53840,R,ugm-3,7.02032,R,ugm-3
03-01-2022,05:00,9.662,R,ugm-3 (Ref.eq),1.33716,R,ugm-3,3.48919,R,ugm-3,5.53947,R,ugm-3
03-01-2022,06:00,6.763,R,ugm-3 (Ref.eq),2.07612,R,ugm-3,4.05637,R,ugm-3,7.23971,R,ugm-3
03-01-2022,07:00,6.763,R,ugm-3 (Ref.eq),2.53357,R,ugm-3,7.19419,R,ugm-3,11.07894,R,ugm-3
03-01-2022,08:00,10.628,R,ugm-3 (Ref.eq),5.10233,R,ugm-3,8.79495,R,ugm-3,16.61841,R,ugm-3
03-01-2022,09:00,8.696,R,ugm-3 (Ref.eq),4.36337,R,ugm-3,10.75070,R,ugm-3,17.44111,R,ugm-3
03-01-2022,10:00,5.797,R,ugm-3 (Ref.eq),6.61543,R,ugm-3,16.62145,R,ugm-3,26.76497,R,ugm-3
03-01-2022,11:00,7.730,R,ugm-3 (Ref.eq),10.52135,R,ugm-3,18.91424,R,ugm-3,35.04676,R,ugm-3
03-01-2022,12:00,7.730,R,ugm-3 (Ref.eq),10.38060,R,ugm-3,15.83929,R,ugm-3,31.75598,R,ugm-3
03-01-2022,13:00,10.628,R,ugm-3 (Ref.eq),9.11381,R,ugm-3,12.73581,R,ugm-3,26.71013,R,ugm-3
03-01-2022,14:00,12.561,R,ugm-3 (Ref.eq),10.62692,R,ugm-3,17.38122,R,ugm-3,33.67560,R,ugm-3
03-01-2022,15:00,13.527,R,ugm-3 (Ref.eq),7.21364,R,ugm-3,17.95292,R,ugm-3,29.01367,R,ugm-3
03-01-2022,16:00,6.763,R,ugm-3 (Ref.eq),6.75619,R,ugm-3,13.93755,R,ugm-3,24.29689,R,ugm-3
03-01-2022,17:00,3.865,R,ugm-3 (Ref.eq),4.32818,R,ugm-3,18.86706,R,ugm-3,25.50351,R,ugm-3
03-01-2022,18:00,3.865,R,ugm-3 (Ref.eq),1.51311,R,ugm-3,13.47566,R,ugm-3,15.79572,R,ugm-3
03-01-2022,19:00,0.966,R,ugm-3 (Ref.eq),1.65386,R,ugm-3,15.45369,R,ugm-3,17.98957,R,ugm-3
03-01-2022,20:00,0.000,R,ugm-3 (Ref.eq),2.67432,R,ugm-3,14.05354,R,ugm-3,18.15411,R,ugm-3
03-01-2022,21:00,1.932,R,ugm-3 (Ref.eq),4.25780,R,ugm-3,18.53620,R,ugm-3,25.06474,R,ugm-3
03-01-2022,22:00,4.831,R,ugm-3 (Ref.eq),8.30448,R,ugm-3,27.13987,R,ugm-3,39.87323,R,ugm-3
03-01-2022,23:00,3.865,R,ugm-3 (Ref.eq),5.80610,R,ugm-3,16.60095,R,ugm-3,25.50351,R,ugm-3
03-01-2022,24:00,2.899,R,ugm-3 (Ref.eq),2.46319,R,ugm-3,12.56734,R,ugm-3,16.34418,R,ugm-3
04-01-2022,01:00,4.831,R,ugm-3 (Ref.eq),1.40828,R,ugm-3,8.29241,R,ugm-3,10.45173,R,ugm-3
04-01-2022,02:00,2.899,R,ugm-3 (Ref.eq),0.61025,R,ugm-3,8.20042,R,ugm-3,9.13613,R,ugm-3
04-01-2022,03:00,3.865,R,ugm-3 (Ref.eq),0.80976,R,ugm-3,5.11713,R,ugm-3,6.35875,R,ugm-3
04-01-2022,04:00,5.797,R,ugm-3 (Ref.eq),1.97159,R,ugm-3,5.85726,R,ugm-3,8.88032,R,ugm-3
04-01-2022,05:00,5.797,R,ugm-3 (Ref.eq),3.62632,R,ugm-3,7.04759,R,ugm-3,12.60786,R,ugm-3
04-01-2022,06:00,7.730,R,ugm-3 (Ref.eq),4.61211,R,ugm-3,7.39983,R,ugm-3,14.47163,R,ugm-3
04-01-2022,07:00,4.831,R,ugm-3 (Ref.eq),10.42126,R,ugm-3,16.08879,R,ugm-3,32.06782,R,ugm-3
04-01-2022,08:00,3.865,R,ugm-3 (Ref.eq),12.67450,R,ugm-3,20.30821,R,ugm-3,39.74217,R,ugm-3
04-01-2022,09:00,5.797,R,ugm-3 (Ref.eq),40.45278,R,ugm-3,47.38758,R,ugm-3,109.41431,R,ugm-3
04-01-2022,10:00,5.797,R,ugm-3 (Ref.eq),15.91354,R,ugm-3,24.87988,R,ugm-3,49.28029,R,ugm-3
04-01-2022,11:00,6.763,R,ugm-3 (Ref.eq),13.58988,R,ugm-3,19.61726,R,ugm-3,40.45479,R,ugm-3
04-01-2022,12:00,5.797,R,ugm-3 (Ref.eq),30.77087,R,ugm-3,25.72499,R,ugm-3,72.90633,R,ugm-3
04-01-2022,13:00,5.797,R,ugm-3 (Ref.eq),19.18779,R,ugm-3,30.27462,R,ugm-3,59.69548,R,ugm-3
04-01-2022,14:00,6.763,R,ugm-3 (Ref.eq),11.61829,R,ugm-3,15.34969,R,ugm-3,33.16416,R,ugm-3
04-01-2022,15:00,9.662,R,ugm-3 (Ref.eq),14.71650,R,ugm-3,22.49441,R,ugm-3,45.05940,R,ugm-3
04-01-2022,16:00,10.628,R,ugm-3 (Ref.eq),25.31379,R,ugm-3,32.55752,R,ugm-3,71.37146,R,ugm-3
04-01-2022,17:00,9.662,R,ugm-3 (Ref.eq),22.74369,R,ugm-3,30.02991,R,ugm-3,64.90308,R,ugm-3
04-01-2022,18:00,9.662,R,ugm-3 (Ref.eq),8.41446,R,ugm-3,18.72730,R,ugm-3,31.62929,R,ugm-3
04-01-2022,19:00,8.696,R,ugm-3 (Ref.eq),6.83015,R,ugm-3,16.82602,R,ugm-3,27.29876,R,ugm-3
04-01-2022,20:00,7.730,R,ugm-3 (Ref.eq),3.90797,R,ugm-3,9.74028,R,ugm-3,15.73242,R,ugm-3
04-01-2022,21:00,6.763,R,ugm-3 (Ref.eq),3.69673,R,ugm-3,8.63894,R,ugm-3,14.30718,R,ugm-3
04-01-2022,22:00,10.628,R,ugm-3 (Ref.eq),2.67573,R,ugm-3,7.29917,R,ugm-3,11.40189,R,ugm-3
04-01-2022,23:00,8.696,R,ugm-3 (Ref.eq),1.86597,R,ugm-3,4.37471,R,ugm-3,7.23582,R,ugm-3
04-01-2022,24:00,8.696,R,ugm-3 (Ref.eq),2.04200,R,ugm-3,3.50181,R,ugm-3,6.63283,R,ugm-3
05-01-2022,01:00,7.730,R,ugm-3 (Ref.eq),1.26812,R,ugm-3,2.14637,R,ugm-3,4.09079,R,ugm-3
05-01-2022,02:00,3.865,R,ugm-3 (Ref.eq),1.17418,R,ugm-3,1.55990,R,ugm-3,3.36029,R,ugm-3
05-01-2022,03:00,0.966,R,ugm-3 (Ref.eq),0.59883,R,ugm-3,1.32808,R,ugm-3,2.24628,R,ugm-3
05-01-2022,04:00,0.000,R,ugm-3 (Ref.eq),1.02154,R,ugm-3,1.50175,R,ugm-3,3.06809,R,ugm-3
05-01-2022,05:00,2.899,R,ugm-3 (Ref.eq),1.26812,R,ugm-3,2.43857,R,ugm-3,4.38299,R,ugm-3
05-01-2022,06:00,6.763,R,ugm-3 (Ref.eq),2.53623,R,ugm-3,5.64416,R,ugm-3,9.53300,R,ugm-3
05-01-2022,07:00,2.899,R,ugm-3 (Ref.eq),7.67914,R,ugm-3,14.52340,R,ugm-3,26.29792,R,ugm-3
05-01-2022,08:00,3.865,R,ugm-3 (Ref.eq),8.34843,R,ugm-3,14.64771,R,ugm-3,27.44845,R,ugm-3
05-01-2022,09:00,7.730,R,ugm-3 (Ref.eq),13.91404,R,ugm-3,28.13839,R,ugm-3,49.47296,R,ugm-3
05-01-2022,10:00,5.797,R,ugm-3 (Ref.eq),5.77697,R,ugm-3,18.37141,R,ugm-3,27.22930,R,ugm-3
05-01-2022,11:00,3.865,R,ugm-3 (Ref.eq),9.05293,R,ugm-3,21.34728,R,ugm-3,35.22825,R,ugm-3
05-01-2022,12:00,10.628,R,ugm-3 (Ref.eq),11.34259,R,ugm-3,19.64451,R,ugm-3,37.03623,R,ugm-3
05-01-2022,13:00,16.425,R,ugm-3 (Ref.eq),12.22322,R,ugm-3,17.91071,R,ugm-3,36.65272,R,ugm-3
05-01-2022,14:00,18.358,R,ugm-3 (Ref.eq),13.00992,R,ugm-3,20.08300,R,ugm-3,40.03127,R,ugm-3
05-01-2022,15:00,11.594,R,ugm-3 (Ref.eq),10.81421,R,ugm-3,20.56426,R,ugm-3,37.14581,R,ugm-3
05-01-2022,16:00,13.527,R,ugm-3 (Ref.eq),9.96880,R,ugm-3,21.80575,R,ugm-3,37.09102,R,ugm-3
05-01-2022,17:00,13.527,R,ugm-3 (Ref.eq),11.97664,R,ugm-3,30.34200,R,ugm-3,48.70593,R,ugm-3
05-01-2022,18:00,18.358,R,ugm-3 (Ref.eq),15.49919,R,ugm-3,31.02224,R,ugm-3,54.78733,R,ugm-3
05-01-2022,19:00,17.392,R,ugm-3 (Ref.eq),9.08816,R,ugm-3,31.20978,R,ugm-3,45.14476,R,ugm-3
05-01-2022,20:00,11.594,R,ugm-3 (Ref.eq),5.00201,R,ugm-3,31.11979,R,ugm-3,38.78943,R,ugm-3
05-01-2022,21:00,11.594,R,ugm-3 (Ref.eq),3.87480,R,ugm-3,25.12314,R,ugm-3,31.06441,R,ugm-3
05-01-2022,22:00,10.628,R,ugm-3 (Ref.eq),12.89251,R,ugm-3,28.33504,R,ugm-3,48.10328,R,ugm-3
05-01-2022,23:00,13.527,R,ugm-3 (Ref.eq),7.08031,R,ugm-3,21.79692,R,ugm-3,32.65325,R,ugm-3
05-01-2022,24:00,8.696,R,ugm-3 (Ref.eq),5.24859,R,ugm-3,19.78424,R,ugm-3,27.83196,R,ugm-3
06-01-2022,01:00,4.831,R,ugm-3 (Ref.eq),4.41724,R,ugm-3,19.80282,R,ugm-3,26.57582,R,ugm-3
06-01-2022,02:00,3.865,R,ugm-3 (Ref.eq),26.12748,R,ugm-3,39.88491,R,ugm-3,79.94648,R,ugm-3
06-01-2022,03:00,9.662,R,ugm-3 (Ref.eq),29.46390,R,ugm-3,49.11569,R,ugm-3,94.29304,R,ugm-3
06-01-2022,04:00,9.662,R,ugm-3 (Ref.eq),32.91781,R,ugm-3,46.06485,R,ugm-3,96.53812,R,ugm-3
06-01-2022,05:00,8.696,R,ugm-3 (Ref.eq),27.56073,R,ugm-3,43.16307,R,ugm-3,85.42227,R,ugm-3
06-01-2022,06:00,10.628,R,ugm-3 (Ref.eq),81.20195,R,ugm-3,66.21372,R,ugm-3,190.72165,R,ugm-3
06-01-2022,07:00,13.527,R,ugm-3 (Ref.eq),166.10451,R,ugm-3,104.13826,R,ugm-3,358.82829,R,ugm-3
06-01-2022,08:00,22.223,R,ugm-3 (Ref.eq),143.05500,R,ugm-3,101.42363,R,ugm-3,320.77157,R,ugm-3
06-01-2022,09:00,28.986,R,ugm-3 (Ref.eq),118.73671,R,ugm-3,97.80704,R,ugm-3,279.86745,R,ugm-3
06-01-2022,10:00,22.223,R,ugm-3 (Ref.eq),61.14817,R,ugm-3,68.21454,R,ugm-3,161.97377,R,ugm-3
06-01-2022,11:00,29.952,R,ugm-3 (Ref.eq),39.01500,R,ugm-3,56.20975,R,ugm-3,116.03192,R,ugm-3
06-01-2022,12:00,14.493,R,ugm-3 (Ref.eq),26.50342,R,ugm-3,54.64068,R,ugm-3,95.27869,R,ugm-3
06-01-2022,13:00,18.358,R,ugm-3 (Ref.eq),28.37134,R,ugm-3,52.37891,R,ugm-3,95.88102,R,ugm-3
06-01-2022,14:00,10.628,R,ugm-3 (Ref.eq),28.68854,R,ugm-3,52.71391,R,ugm-3,96.70239,R,ugm-3
06-01-2022,15:00,11.594,R,ugm-3 (Ref.eq),24.95268,R,ugm-3,40.48156,R,ugm-3,78.74181,R,ugm-3
06-01-2022,16:00,12.561,R,ugm-3 (Ref.eq),37.35854,R,ugm-3,52.28820,R,ugm-3,109.57049,R,ugm-3
06-01-2022,17:00,9.662,R,ugm-3 (Ref.eq),55.72061,R,ugm-3,69.25389,R,ugm-3,154.69097,R,ugm-3
06-01-2022,18:00,8.696,R,ugm-3 (Ref.eq),39.54366,R,ugm-3,53.59214,R,ugm-3,114.22491,R,ugm-3
06-01-2022,19:00,7.730,R,ugm-3 (Ref.eq),26.53866,R,ugm-3,41.49951,R,ugm-3,82.19156,R,ugm-3
06-01-2022,20:00,12.561,R,ugm-3 (Ref.eq),38.38061,R,ugm-3,49.84491,R,ugm-3,108.69436,R,ugm-3
06-01-2022,21:00,14.493,R,ugm-3 (Ref.eq),23.36671,R,ugm-3,45.76077,R,ugm-3,81.58922,R,ugm-3
06-01-2022,22:00,7.730,R,ugm-3 (Ref.eq),12.33537,R,ugm-3,26.09700,R,ugm-3,45.01097,R,ugm-3
06-01-2022,23:00,5.797,R,ugm-3 (Ref.eq),27.94841,R,ugm-3,46.29217,R,ugm-3,89.14580,R,ugm-3
06-01-2022,24:00,2.899,R,ugm-3 (Ref.eq),6.80207,R,ugm-3,13.99231,R,ugm-3,24.42201,R,ugm-3
07-01-2022,01:00,0.000,R,ugm-3 (Ref.eq),10.53170,R,ugm-3,35.58821,R,ugm-3,51.73658,R,ugm-3
07-01-2022,02:00,1.932,R,ugm-3 (Ref.eq),1.73961,R,ugm-3,13.31333,R,ugm-3,15.98069,R,ugm-3
07-01-2022,03:00,1.932,R,ugm-3 (Ref.eq),2.00996,R,ugm-3,7.69961,R,ugm-3,10.78150,R,ugm-3
07-01-2022,04:00,7.730,R,ugm-3 (Ref.eq),1.30471,R,ugm-3,7.46749,R,ugm-3,9.46801,R,ugm-3
07-01-2022,05:00,5.797,R,ugm-3 (Ref.eq),2.67994,R,ugm-3,9.40873,R,ugm-3,13.51792,R,ugm-3
07-01-2022,06:00,3.865,R,ugm-3 (Ref.eq),9.41506,R,ugm-3,21.79399,R,ugm-3,36.23020,R,ugm-3
07-01-2022,07:00,7.730,R,ugm-3 (Ref.eq),23.48475,R,ugm-3,39.84412,R,ugm-3,75.85357,R,ugm-3
07-01-2022,08:00,5.797,R,ugm-3 (Ref.eq),42.31486,R,ugm-3,59.07796,R,ugm-3,123.95983,R,ugm-3
07-01-2022,09:00,6.763,R,ugm-3 (Ref.eq),47.63948,R,ugm-3,59.61547,R,ugm-3,132.66165,R,ugm-3
07-01-2022,10:00,5.797,R,ugm-3 (Ref.eq),14.81020,R,ugm-3,26.38272,R,ugm-3,49.09138,R,ugm-3
07-01-2022,11:00,6.763,R,ugm-3 (Ref.eq),22.67371,R,ugm-3,37.53035,R,ugm-3,72.29622,R,ugm-3
07-01-2022,12:00,4.831,R,ugm-3 (Ref.eq),22.99107,R,ugm-3,33.76003,R,ugm-3,69.01252,R,ugm-3
07-01-2022,13:00,2.899,R,ugm-3 (Ref.eq),17.59593,R,ugm-3,28.56928,R,ugm-3,55.54933,R,ugm-3
07-01-2022,14:00,0.000,R,ugm-3 (Ref.eq),9.13296,R,ugm-3,25.23659,R,ugm-3,39.24026,R,ugm-3
07-01-2022,15:00,2.899,R,ugm-3 (Ref.eq),5.71251,R,ugm-3,14.44579,R,ugm-3,23.20484,R,ugm-3
07-01-2022,16:00,3.865,R,ugm-3 (Ref.eq),14.10495,R,ugm-3,24.34457,R,ugm-3,45.97186,R,ugm-3
07-01-2022,17:00,3.865,R,ugm-3 (Ref.eq),9.87347,R,ugm-3,23.66333,R,ugm-3,38.80244,R,ugm-3
07-01-2022,18:00,0.966,R,ugm-3 (Ref.eq),5.81829,R,ugm-3,16.91055,R,ugm-3,25.83181,R,ugm-3
07-01-2022,19:00,4.831,R,ugm-3 (Ref.eq),4.79568,R,ugm-3,18.58798,R,ugm-3,25.94126,R,ugm-3
07-01-2022,20:00,7.730,R,ugm-3 (Ref.eq),4.05517,R,ugm-3,15.29042,R,ugm-3,21.50826,R,ugm-3
07-01-2022,21:00,5.797,R,ugm-3 (Ref.eq),2.71520,R,ugm-3,11.43434,R,ugm-3,15.59760,R,ugm-3
07-01-2022,22:00,6.763,R,ugm-3 (Ref.eq),3.03257,R,ugm-3,11.22137,R,ugm-3,15.87124,R,ugm-3
07-01-2022,23:00,5.797,R,ugm-3 (Ref.eq),13.92864,R,ugm-3,36.49097,R,ugm-3,57.84792,R,ugm-3
07-01-2022,24:00,4.831,R,ugm-3 (Ref.eq),39.35282,R,ugm-3,56.66918,R,ugm-3,117.00932,R,ugm-3
08-01-2022,01:00,10.628,R,ugm-3 (Ref.eq),76.77115,R,ugm-3,75.19080,R,ugm-3,192.90493,R,ugm-3
08-01-2022,02:00,7.730,R,ugm-3 (Ref.eq),10.67834,R,ugm-3,24.90624,R,ugm-3,41.27947,R,ugm-3
08-01-2022,03:00,8.696,R,ugm-3 (Ref.eq),11.39572,R,ugm-3,26.99705,R,ugm-3,44.47024,R,ugm-3
08-01-2022,04:00,6.763,R,ugm-3 (Ref.eq),5.60966,R,ugm-3,14.59100,R,ugm-3,23.19235,R,ugm-3
08-01-2022,05:00,6.763,R,ugm-3 (Ref.eq),3.91618,R,ugm-3,11.49894,R,ugm-3,17.50366,R,ugm-3
08-01-2022,06:00,7.730,R,ugm-3 (Ref.eq),4.51595,R,ugm-3,10.63400,R,ugm-3,17.55836,R,ugm-3
08-01-2022,07:00,9.662,R,ugm-3 (Ref.eq),6.77393,R,ugm-3,19.64318,R,ugm-3,30.02972,R,ugm-3
08-01-2022,08:00,9.662,R,ugm-3 (Ref.eq),8.60853,R,ugm-3,22.57355,R,ugm-3,35.77311,R,ugm-3
08-01-2022,09:00,9.662,R,ugm-3 (Ref.eq),16.82897,R,ugm-3,28.23849,R,ugm-3,54.04255,R,ugm-3
08-01-2022,10:00,5.797,R,ugm-3 (Ref.eq),23.32065,R,ugm-3,33.87392,R,ugm-3,69.63175,R,ugm-3
08-01-2022,11:00,10.628,R,ugm-3 (Ref.eq),35.49255,R,ugm-3,44.36514,R,ugm-3,98.78629,R,ugm-3
08-01-2022,12:00,13.527,R,ugm-3 (Ref.eq),64.91678,R,ugm-3,64.72324,R,ugm-3,164.26092,R,ugm-3
08-01-2022,13:00,15.459,R,ugm-3 (Ref.eq),137.41895,R,ugm-3,107.04002,R,ugm-3,317.74614,R,ugm-3
08-01-2022,14:00,21.256,R,ugm-3 (Ref.eq),75.39520,R,ugm-3,84.42967,R,ugm-3,200.03402,R,ugm-3
08-01-2022,15:00,16.425,R,ugm-3 (Ref.eq),19.15751,R,ugm-3,35.99080,R,ugm-3,65.36523,R,ugm-3
08-01-2022,16:00,16.425,R,ugm-3 (Ref.eq),12.41886,R,ugm-3,29.36657,R,ugm-3,48.40856,R,ugm-3
08-01-2022,17:00,13.527,R,ugm-3 (Ref.eq),18.62830,R,ugm-3,38.88081,R,ugm-3,67.44379,R,ugm-3
08-01-2022,18:00,11.594,R,ugm-3 (Ref.eq),17.00538,R,ugm-3,33.71140,R,ugm-3,59.78594,R,ugm-3
08-01-2022,19:00,11.594,R,ugm-3 (Ref.eq),9.84336,R,ugm-3,23.19632,R,ugm-3,38.28926,R,ugm-3
08-01-2022,20:00,7.730,R,ugm-3 (Ref.eq),4.02202,R,ugm-3,13.90750,R,ugm-3,20.07451,R,ugm-3
08-01-2022,21:00,12.561,R,ugm-3 (Ref.eq),8.99662,R,ugm-3,19.24354,R,ugm-3,33.03816,R,ugm-3
08-01-2022,22:00,6.763,R,ugm-3 (Ref.eq),4.33955,R,ugm-3,13.53003,R,ugm-3,20.18391,R,ugm-3
08-01-2022,23:00,3.865,R,ugm-3 (Ref.eq),2.85775,R,ugm-3,9.12882,R,ugm-3,13.51064,R,ugm-3
08-01-2022,24:00,2.899,R,ugm-3 (Ref.eq),2.99887,R,ugm-3,8.58424,R,ugm-3,13.18244,R,ugm-3
09-01-2022,01:00,2.899,R,ugm-3 (Ref.eq),2.02383,R,ugm-3,5.57106,R,ugm-3,8.67422,R,ugm-3
09-01-2022,02:00,0.966,R,ugm-3 (Ref.eq),2.30622,R,ugm-3,3.68021,R,ugm-3,7.21637,R,ugm-3
09-01-2022,03:00,0.000,R,ugm-3 (Ref.eq),2.57685,R,ugm-3,4.24930,R,ugm-3,8.20042,R,ugm-3
09-01-2022,04:00,4.831,R,ugm-3 (Ref.eq),1.72967,R,ugm-3,3.36152,R,ugm-3,6.01364,R,ugm-3
09-01-2022,05:00,7.730,R,ugm-3 (Ref.eq),1.23548,R,ugm-3,3.24456,R,ugm-3,5.13893,R,ugm-3
09-01-2022,06:00,7.730,R,ugm-3 (Ref.eq),1.80027,R,ugm-3,4.78402,R,ugm-3,7.54439,R,ugm-3
09-01-2022,07:00,9.662,R,ugm-3 (Ref.eq),2.64745,R,ugm-3,5.67180,R,ugm-3,9.73117,R,ugm-3
09-01-2022,08:00,9.662,R,ugm-3 (Ref.eq),4.23592,R,ugm-3,9.52317,R,ugm-3,16.01816,R,ugm-3
09-01-2022,09:00,4.831,R,ugm-3 (Ref.eq),21.46200,R,ugm-3,36.79565,R,ugm-3,69.70358,R,ugm-3
09-01-2022,10:00,14.493,R,ugm-3 (Ref.eq),105.86272,R,ugm-3,105.55987,R,ugm-3,267.88044,R,ugm-3
09-01-2022,11:00,5.797,R,ugm-3 (Ref.eq),38.65278,R,ugm-3,57.28856,R,ugm-3,116.55533,R,ugm-3
09-01-2022,12:00,11.594,R,ugm-3 (Ref.eq),24.53304,R,ugm-3,43.95006,R,ugm-3,81.56686,R,ugm-3
09-01-2022,13:00,11.594,R,ugm-3 (Ref.eq),43.84178,R,ugm-3,64.63965,R,ugm-3,131.86278,R,ugm-3
09-01-2022,14:00,13.527,R,ugm-3 (Ref.eq),57.18493,R,ugm-3,76.76345,R,ugm-3,164.44579,R,ugm-3
09-01-2022,15:00,13.527,R,ugm-3 (Ref.eq),60.85606,R,ugm-3,87.31663,R,ugm-3,180.62795,R,ugm-3
09-01-2022,16:00,7.730,R,ugm-3 (Ref.eq),36.71131,R,ugm-3,63.81895,R,ugm-3,120.10884,R,ugm-3
09-01-2022,17:00,10.628,R,ugm-3 (Ref.eq),58.24391,R,ugm-3,96.24212,R,ugm-3,185.54821,R,ugm-3
09-01-2022,18:00,13.527,R,ugm-3 (Ref.eq),39.00577,R,ugm-3,63.08897,R,ugm-3,122.89698,R,ugm-3
09-01-2022,19:00,10.628,R,ugm-3 (Ref.eq),45.50085,R,ugm-3,68.65612,R,ugm-3,138.42312,R,ugm-3
09-01-2022,20:00,15.459,R,ugm-3 (Ref.eq),21.17960,R,ugm-3,51.06002,R,ugm-3,83.53496,R,ugm-3
09-01-2022,21:00,26.087,R,ugm-3 (Ref.eq),88.00125,R,ugm-3,83.52586,R,ugm-3,218.45923,R,ugm-3
09-01-2022,22:00,8.696,R,ugm-3 (Ref.eq),3.70643,R,ugm-3,20.23022,R,ugm-3,25.91333,R,ugm-3
09-01-2022,23:00,10.628,R,ugm-3 (Ref.eq),4.55362,R,ugm-3,18.71254,R,ugm-3,25.69465,R,ugm-3
09-01-2022,24:00,5.797,R,ugm-3 (Ref.eq),3.45934,R,ugm-3,14.92347,R,ugm-3,20.22771,R,ugm-3
10-01-2022,01:00,4.831,R,ugm-3 (Ref.eq),8.33501,R,ugm-3,25.83212,R,ugm-3,38.61228,R,ugm-3
10-01-2022,02:00,8.696,R,ugm-3 (Ref.eq),39.88559,R,ugm-3,49.21578,R,ugm-3,110.37283,R,ugm-3
10-01-2022,03:00,8.696,R,ugm-3 (Ref.eq),32.35112,R,ugm-3,47.87343,R,ugm-3,97.47779,R,ugm-3
10-01-2022,04:00,14.493,R,ugm-3 (Ref.eq),38.31983,R,ugm-3,42.49169,R,ugm-3,101.24795,R,ugm-3
10-01-2022,05:00,10.628,R,ugm-3 (Ref.eq),62.30063,R,ugm-3,49.48830,R,ugm-3,145.01460,R,ugm-3
10-01-2022,06:00,12.561,R,ugm-3 (Ref.eq),111.32176,R,ugm-3,57.26715,R,ugm-3,227.95814,R,ugm-3
10-01-2022,07:00,11.594,R,ugm-3 (Ref.eq),142.75462,R,ugm-3,89.61016,R,ugm-3,308.49752,R,ugm-3
10-01-2022,08:00,14.493,R,ugm-3 (Ref.eq),218.33475,R,ugm-3,137.09588,R,ugm-3,471.87117,R,ugm-3
10-01-2022,09:00,17.392,R,ugm-3 (Ref.eq),191.84639,R,ugm-3,129.51831,R,ugm-3,423.67867,R,ugm-3
10-01-2022,10:00,13.527,R,ugm-3 (Ref.eq),87.94137,R,ugm-3,73.22763,R,ugm-3,208.06918,R,ugm-3
10-01-2022,11:00,16.425,R,ugm-3 (Ref.eq),69.96460,R,ugm-3,66.47769,R,ugm-3,173.75525,R,ugm-3
10-01-2022,12:00,19.324,R,ugm-3 (Ref.eq),59.26330,R,ugm-3,63.16108,R,ugm-3,154.03020,R,ugm-3
10-01-2022,13:00,19.324,R,ugm-3 (Ref.eq),53.18863,R,ugm-3,55.37311,R,ugm-3,136.92788,R,ugm-3
10-01-2022,14:00,17.392,R,ugm-3 (Ref.eq),51.31679,R,ugm-3,55.18339,R,ugm-3,133.86804,R,ugm-3
10-01-2022,15:00,16.425,R,ugm-3 (Ref.eq),70.24714,R,ugm-3,73.09303,R,ugm-3,180.80381,R,ugm-3
10-01-2022,16:00,17.392,R,ugm-3 (Ref.eq),67.20981,R,ugm-3,70.81093,R,ugm-3,173.86453,R,ugm-3
10-01-2022,17:00,18.358,R,ugm-3 (Ref.eq),74.13210,R,ugm-3,75.49609,R,ugm-3,189.16373,R,ugm-3
10-01-2022,18:00,16.425,R,ugm-3 (Ref.eq),57.17955,R,ugm-3,67.94068,R,ugm-3,155.61476,R,ugm-3
10-01-2022,19:00,20.290,R,ugm-3 (Ref.eq),45.24213,R,ugm-3,58.15950,R,ugm-3,127.52979,R,ugm-3
10-01-2022,20:00,16.425,R,ugm-3 (Ref.eq),41.67503,R,ugm-3,59.09386,R,ugm-3,122.99467,R,ugm-3
10-01-2022,21:00,19.324,R,ugm-3 (Ref.eq),15.75175,R,ugm-3,43.87448,R,ugm-3,68.02682,R,ugm-3
10-01-2022,22:00,18.358,R,ugm-3 (Ref.eq),14.90412,R,ugm-3,36.15855,R,ugm-3,59.01122,R,ugm-3
10-01-2022,23:00,11.594,R,ugm-3 (Ref.eq),21.22601,R,ugm-3,33.13121,R,ugm-3,65.67730,R,ugm-3
10-01-2022,24:00,10.628,R,ugm-3 (Ref.eq),13.20887,R,ugm-3,33.84031,R,ugm-3,54.09362,R,ugm-3
11-01-2022,01:00,5.797,R,ugm-3 (Ref.eq),3.39228,R,ugm-3,11.03611,R,ugm-3,16.23754,R,ugm-3
11-01-2022,02:00,-0.966,R,ugm-3 (Ref.eq),1.88460,R,ugm-3,6.50333,R,ugm-3,9.39301,R,ugm-3
11-01-2022,03:00,2.899,R,ugm-3 (Ref.eq),5.86583,R,ugm-3,16.72743,R,ugm-3,25.72157,R,ugm-3
11-01-2022,04:00,3.865,R,ugm-3 (Ref.eq),3.88699,R,ugm-3,9.60404,R,ugm-3,15.56401,R,ugm-3
11-01-2022,05:00,6.763,R,ugm-3 (Ref.eq),4.66439,R,ugm-3,12.61705,R,ugm-3,19.76902,R,ugm-3
11-01-2022,06:00,9.662,R,ugm-3 (Ref.eq),6.00717,R,ugm-3,11.48653,R,ugm-3,20.69740,R,ugm-3
11-01-2022,07:00,16.425,R,ugm-3 (Ref.eq),24.06402,R,ugm-3,29.94567,R,ugm-3,66.84332,R,ugm-3
11-01-2022,08:00,13.527,R,ugm-3 (Ref.eq),25.26545,R,ugm-3,40.44548,R,ugm-3,79.18530,R,ugm-3
11-01-2022,09:00,16.425,R,ugm-3 (Ref.eq),9.50546,R,ugm-3,38.06973,R,ugm-3,52.64457,R,ugm-3
11-01-2022,10:00,17.392,R,ugm-3 (Ref.eq),36.50239,R,ugm-3,52.65083,R,ugm-3,108.62039,R,ugm-3
11-01-2022,11:00,14.493,R,ugm-3 (Ref.eq),88.72944,R,ugm-3,72.28934,R,ugm-3,208.33926,R,ugm-3
11-01-2022,12:00,18.358,R,ugm-3 (Ref.eq),58.58758,R,ugm-3,64.33255,R,ugm-3,154.16559,R,ugm-3
11-01-2022,13:00,16.425,R,ugm-3 (Ref.eq),26.46689,R,ugm-3,36.91038,R,ugm-3,77.49237,R,ugm-3
11-01-2022,14:00,22.223,R,ugm-3 (Ref.eq),51.97969,R,ugm-3,64.74383,R,ugm-3,144.44491,R,ugm-3
11-01-2022,15:00,21.256,R,ugm-3 (Ref.eq),10.77757,R,ugm-3,26.23468,R,ugm-3,42.76006,R,ugm-3
11-01-2022,16:00,17.392,R,ugm-3 (Ref.eq),20.67173,R,ugm-3,33.29034,R,ugm-3,64.98656,R,ugm-3
11-01-2022,17:00,14.493,R,ugm-3 (Ref.eq),15.79532,R,ugm-3,43.66176,R,ugm-3,67.88092,R,ugm-3
11-01-2022,18:00,12.561,R,ugm-3 (Ref.eq),26.14886,R,ugm-3,39.74627,R,ugm-3,79.84063,R,ugm-3
11-01-2022,19:00,18.358,R,ugm-3 (Ref.eq),24.02868,R,ugm-3,44.63548,R,ugm-3,81.47894,R,ugm-3